| time (UTC) | temp F | wind direction | speed knots | gust knots | rain 1hr in | rain 24hr in | rain mn in | humidity % | barometer mb |
| 20260504005048 | 58 | 0.0 | 0.0 | 0.00 | 0.01 | 0.00 | 72 | 1012.6 | |
| 20260504004117 | 58 | 0.0 | 0.0 | 0.00 | 0.01 | 0.00 | 72 | 1012.6 | |
| 20260504003046 | 58 | 0.0 | 0.0 | 0.00 | 0.01 | 0.00 | 71 | 1012.8 | |
| 20260504002046 | 59 | 0.0 | 0.0 | 0.00 | 0.01 | 0.00 | 71 | 1012.6 | |
| 20260504001155 | 59 | 0.0 | 0.0 | 0.00 | 0.01 | 0.00 | 70 | 1012.8 | |
| 20260504000044 | 59 | 0.0 | 0.0 | 0.00 | 0.01 | 0.00 | 70 | 1012.9 | |
| 20260503235103 | 59 | 0.0 | 0.0 | 0.00 | 0.01 | 0.00 | 70 | 1013.0 | |
| 20260503234042 | 60 | 114 | 1.7 | 3.5 | 0.00 | 0.01 | 0.00 | 70 | 1013.1 |
| 20260503233042 | 60 | 0.0 | 0.0 | 0.00 | 0.01 | 0.00 | 70 | 1013.1 | |
| 20260503232111 | 59 | 113 | 0.9 | 2.6 | 0.00 | 0.01 | 0.00 | 70 | 1013.3 |
| 20260503231040 | 59 | 51 | 1.7 | 3.5 | 0.00 | 0.01 | 0.00 | 71 | 1013.5 |
| 20260503230040 | 59 | 358 | 1.7 | 3.5 | 0.00 | 0.01 | 0.00 | 71 | 1013.5 |
| 20260503225149 | 59 | 340 | 1.7 | 2.6 | 0.00 | 0.01 | 0.00 | 71 | 1013.5 |
| 20260503224058 | 59 | 332 | 0.9 | 3.5 | 0.00 | 0.01 | 0.00 | 71 | 1013.6 |
| 20260503223057 | 60 | 342 | 1.7 | 4.3 | 0.00 | 0.01 | 0.00 | 70 | 1013.5 |
| 20260503222107 | 60 | 8 | 1.7 | 3.5 | 0.00 | 0.01 | 0.00 | 69 | 1013.5 |
| 20260503221116 | 60 | 47 | 0.9 | 2.6 | 0.00 | 0.01 | 0.00 | 69 | 1013.5 |
| 20260503220055 | 60 | 0.0 | 0.0 | 0.00 | 0.01 | 0.00 | 70 | 1013.5 | |
| 20260503215035 | 60 | 0.0 | 0.0 | 0.00 | 0.01 | 0.01 | 70 | 1013.5 | |
| 20260503214204 | 60 | 0.0 | 0.0 | 0.00 | 0.01 | 0.01 | 69 | 1013.3 | |
| 20260503213033 | 60 | 0.0 | 0.0 | 0.00 | 0.01 | 0.01 | 69 | 1013.3 | |
| 20260503212032 | 60 | 0.0 | 0.0 | 0.00 | 0.01 | 0.01 | 68 | 1013.3 | |
| 20260503211032 | 60 | 0.0 | 0.0 | 0.00 | 0.01 | 0.01 | 67 | 1013.3 | |
| 20260503210331 | 60 | 0.0 | 0.0 | 0.00 | 0.01 | 0.01 | 67 | 1013.2 | |
| 20260503205150 | 60 | 0.0 | 0.0 | 0.00 | 0.01 | 0.01 | 67 | 1013.2 | |
| 20260503204150 | 60 | 357 | 1.7 | 3.5 | 0.00 | 0.01 | 0.01 | 67 | 1013.0 |
| 20260503203059 | 60 | 350 | 2.6 | 6.1 | 0.01 | 0.01 | 0.01 | 69 | 1012.8 |
| 20260503202029 | 60 | 1 | 2.6 | 6.1 | 0.01 | 0.01 | 0.01 | 69 | 1012.6 |
| 20260503201058 | 60 | 71 | 3.5 | 7.0 | 0.01 | 0.01 | 0.01 | 70 | 1012.6 |
| 20260503200027 | 60 | 44 | 3.5 | 7.0 | 0.01 | 0.01 | 0.01 | 70 | 1012.5 |
| 20260503195026 | 60 | 103 | 2.6 | 12.2 | 0.01 | 0.01 | 0.01 | 71 | 1012.5 |
| 20260503194135 | 60 | 35 | 3.5 | 9.6 | 0.01 | 0.01 | 0.01 | 71 | 1012.5 |
| 20260503193055 | 60 | 37 | 5.2 | 9.6 | 0.00 | 0.00 | 0.00 | 69 | 1012.5 |
| 20260503192114 | 61 | 32 | 4.3 | 13.9 | 0.00 | 0.00 | 0.00 | 68 | 1012.3 |
| 20260503191023 | 61 | 125 | 4.3 | 8.7 | 0.00 | 0.00 | 0.00 | 66 | 1012.4 |
| 20260503190042 | 61 | 164 | 1.7 | 6.1 | 0.00 | 0.00 | 0.00 | 66 | 1012.3 |
| 20260503185022 | 61 | 115 | 5.2 | 12.2 | 0.00 | 0.00 | 0.00 | 66 | 1012.2 |
| 20260503184051 | 61 | 98 | 5.2 | 10.4 | 0.00 | 0.00 | 0.00 | 67 | 1012.3 |
| 20260503183050 | 61 | 144 | 7.8 | 12.2 | 0.00 | 0.00 | 0.00 | 67 | 1012.2 |
| 20260503182050 | 61 | 124 | 3.5 | 13.0 | 0.00 | 0.00 | 0.00 | 69 | 1012.1 |
| 20260503181019 | 61 | 108 | 4.3 | 12.2 | 0.00 | 0.00 | 0.00 | 71 | 1012.1 |
| 20260503180018 | 61 | 101 | 3.5 | 6.1 | 0.00 | 0.00 | 0.00 | 72 | 1012.3 |
| 20260503175108 | 61 | 110 | 2.6 | 6.1 | 0.00 | 0.00 | 0.00 | 72 | 1012.7 |
| 20260503174127 | 62 | 141 | 2.6 | 7.0 | 0.00 | 0.00 | 0.00 | 70 | 1012.8 |
| 20260503173046 | 63 | 344 | 2.6 | 4.3 | 0.00 | 0.00 | 0.00 | 67 | 1013.2 |
| 20260503172045 | 63 | 122 | 5.2 | 10.4 | 0.00 | 0.00 | 0.00 | 64 | 1013.2 |
| 20260503171045 | 63 | 129 | 5.2 | 18.2 | 0.00 | 0.00 | 0.00 | 64 | 1013.1 |
| 20260503170104 | 63 | 135 | 4.3 | 16.5 | 0.00 | 0.00 | 0.00 | 63 | 1013.0 |
| 20260503131027 | 74 | 141 | 4.3 | 13.9 | 0.00 | 0.00 | 0.00 | 55 | 1014.5 |
| 20260503120112 | 74 | 79 | 6.1 | 13.9 | 0.00 | 0.00 | 0.00 | 56 | 1015.0 |
| 20260503081035 | 66 | 90 | 1.7 | 2.6 | 0.00 | 0.00 | 0.00 | 64 | 1015.6 |
| 20260503072032 | 63 | 113 | 2.6 | 4.3 | 0.00 | 0.00 | 0.00 | 68 | 1015.4 |
| 20260503071101 | 62 | 161 | 1.7 | 2.6 | 0.00 | 0.00 | 0.00 | 68 | 1015.4 |
| 20260503055055 | 60 | 110 | 3.5 | 7.0 | 0.00 | 0.00 | 0.00 | 67 | 1014.9 |
| 20260503054025 | 60 | 100 | 1.7 | 3.5 | 0.00 | 0.00 | 0.00 | 67 | 1014.8 |
| 20260503053114 | 60 | 98 | 1.7 | 3.5 | 0.00 | 0.00 | 0.00 | 67 | 1014.7 |
| 20260503052053 | 59 | 90 | 2.6 | 6.1 | 0.00 | 0.00 | 0.00 | 68 | 1014.8 |
| 20260503051022 | 59 | 99 | 2.6 | 6.1 | 0.00 | 0.00 | 0.00 | 68 | 1015.0 |
| 20260503050052 | 59 | 57 | 2.6 | 6.1 | 0.00 | 0.00 | 0.00 | 68 | 1014.6 |
| 20260503045021 | 59 | 96 | 1.7 | 4.3 | 0.00 | 0.00 | 0.00 | 68 | 1014.7 |
| 20260503044050 | 59 | 123 | 2.6 | 4.3 | 0.00 | 0.00 | 0.00 | 68 | 1014.8 |
| 20260503043050 | 59 | 132 | 2.6 | 7.0 | 0.00 | 0.00 | 0.00 | 68 | 1014.7 |
| 20260503042049 | 60 | 103 | 2.6 | 3.5 | 0.00 | 0.00 | 0.00 | 68 | 1014.8 |
| 20260503041047 | 60 | 152 | 1.7 | 3.5 | 0.00 | 0.00 | 0.00 | 68 | 1014.7 |
| 20260503040017 | 60 | 114 | 1.7 | 3.5 | 0.00 | 0.00 | 0.00 | 68 | 1014.8 |
| 20260503035126 | 60 | 130 | 0.9 | 2.6 | 0.00 | 0.00 | 0.00 | 69 | 1014.8 |
| 20260503034045 | 59 | 90 | 1.7 | 4.3 | 0.00 | 0.00 | 0.00 | 69 | 1014.9 |
| 20260503033105 | 59 | 0 | 1.7 | 2.6 | 0.00 | 0.00 | 0.00 | 69 | 1015.0 |
| 20260503032104 | 59 | 18 | 0.9 | 3.5 | 0.00 | 0.00 | 0.00 | 69 | 1015.2 |
| 20260503031043 | 60 | 3 | 1.7 | 4.3 | 0.00 | 0.00 | 0.00 | 68 | 1015.2 |
| 20260503030043 | 60 | 353 | 1.7 | 3.5 | 0.00 | 0.00 | 0.00 | 68 | 1015.3 |
| 20260503025042 | 60 | 27 | 0.9 | 2.6 | 0.00 | 0.00 | 0.00 | 68 | 1015.4 |
| 20260503024041 | 60 | 27 | 0.9 | 2.6 | 0.00 | 0.00 | 0.00 | 67 | 1015.2 |
| 20260503023041 | 60 | 40 | 0.9 | 4.3 | 0.00 | 0.00 | 0.00 | 67 | 1015.0 |
| 20260503022100 | 60 | 120 | 1.7 | 4.3 | 0.00 | 0.00 | 0.00 | 67 | 1015.1 |
| 20260503021109 | 59 | 113 | 1.7 | 3.5 | 0.00 | 0.00 | 0.00 | 68 | 1015.2 |
| 20260503020038 | 59 | 103 | 1.7 | 2.6 | 0.00 | 0.00 | 0.00 | 68 | 1015.2 |
| 20260503015021 | 59 | 158 | 0.9 | 3.5 | 0.00 | 0.00 | 0.00 | 68 | 1015.3 |
| 20260503014020 | 59 | 338 | 0.0 | 0.9 | 0.00 | 0.00 | 0.00 | 67 | 1015.5 |
| 20260503013049 | 59 | 15 | 0.9 | 2.6 | 0.00 | 0.00 | 0.00 | 67 | 1015.3 |
| 20260503012019 | 59 | 68 | 0.0 | 3.5 | 0.00 | 0.00 | 0.00 | 67 | 1015.6 |
| 20260503011048 | 59 | 48 | 1.7 | 7.0 | 0.00 | 0.00 | 0.00 | 67 | 1015.5 |
| 20260503010047 | 59 | 12 | 1.7 | 3.5 | 0.00 | 0.00 | 0.00 | 68 | 1015.8 |